{"data":{"norad_id":68973,"intl_designator":"2026-099Y","name":"STARLINK-37387","alt_names":[],"object_type":"PAYLOAD","status":"ACTIVE","operator":null,"country":"US","launch_date":"2026-05-01","launch_site_code":"AFETR","launch_vehicle":null,"mission":null,"orbit_class":"UNKNOWN","rcs_meters":null,"size_class":null,"mass_kg":null,"dimensions":null,"purposes":["comms"],"wikipedia_slug":null,"has_3d_model":false,"image_url":null,"decayed_at":null,"tle_current":{"epoch":"2026-09-19T19:19:03.562176Z","epoch_age_seconds":79412,"freshness":"FRESH","line1":"1 68973U 26099Y   26262.80490234  .00017060  00000+0  51514-3 0  9999","line2":"2 68973  53.1538  78.6282 0001998  77.3351 282.7874 15.34385154 21804","mean_motion":15.34385154,"eccentricity":0.0001998,"inclination_deg":53.1538,"raan_deg":78.6282,"arg_perigee_deg":77.3351,"mean_anomaly_deg":282.7874,"bstar":0.00051514,"rev_number":2180,"period_min":93.84866610877,"perigee_km":461.38055730721,"apogee_km":464.11417469987,"semimajor_km":6840.8843660035,"source":"CELESTRAK","updated_at":"2026-09-20T09:00:44.056192Z"}}}